Airfield :
LOGIN :

Register | Disclaimer

   EN    FR    IT 

 










Legend :    VFR   Marginal VFR   IFR   Intensive IFR   Very Intensive IFR
Visi :
Ceiling :
>= 8 km
>= 3000ft
5 to 8 km
1000 to 3000 ft
1500m to 5 km
500 to 1000 ft
800 to 1500m
200 to 500 ft
< 800m
< 200 ft
Symbols :   Thunderstorms  Fog  Heavy snow  Heavy precipitations  Wind > 20 kt
SIGMETs :     Misc.  Thunderstorms  Icing  Turbulence  Mountain Waves  Volcanic Ashes







- Airport Elevation : 23 ft
- IATA code : XFW


EDHI - Hamburg Finkenwerder

CURRENT METAR :
  • 102320Z AUTO 31012G22KT 280V340 9999 // FEW025/// OVC130/// 06/03 Q1013

EXPIRED METARs :
  • 102250Z AUTO 29016KT 9999 // FEW025/// OVC130/// 06/03 Q1013
  • 102220Z AUTO 30014KT 9999 // BKN027/// BKN033/// OVC130/// 06/03 Q1012
  • 102150Z AUTO 31014KT 280V340 9999 // BKN026/// BKN120/// 06/03 Q1013
  • 102120Z AUTO 30012KT 9999 // BKN028/// BKN037/// 05/03 Q1012
  • 102050Z 31012KT 280V350 9999 -RA FEW023 SCT028 OVC037 06/03 Q1012

Expired Forecast.
No reported NOTAMs for that airfield.



MET'MAP, your aeronautical weather chart ! - Copyright ORBIFLY December 2007 - Disclaimer

ORBIFLY MET'MAP TEAM :

Programming & Development : Alexandra Zaïnal
Concept & Development : Baudouin d'Aumeries
Co-Development & Prog : Marc-Olivier Méhu
Technical & hardware support : Manuel Goepfert

Contact : metmap@orbifly.com




SOURCES & CREDITS :

   NOAA